GSAT0205 (GALILEO 9)

Last updated on Mon Dec 15 2025 00:02:41 GMT+0000 (Coordinated Universal Time)

1 40889U 15045A 25347.28955482 .00000022 00000+0 00000+0 0 9990 2 40889 55.0031 226.7430 0006019 39.8542 320.2702 1.70473165 63847
UTC large
Height (km)
Speed (km/s)
/
Latitude / Longitude
Inclination (degrees)
Orbital Period (minutes)
Azimuth
Elevation
Range (km)
Doppler Factor

Next 0 passes for location: London (51.5072 / 0.1276)

Sorry there are no passes over London.